KA1CNF Weather Reports


time (UTC)temp
C
wind
direction
speed
KPH
gust
KPH
rain 1hr
cm
rain 24hr
cm
rain mn
cm
humidity
%
barometer
mb
20260509090015 5 90 6.4 11.3 0.00 0.13 0.00 88 1007.0
20260509083017 4 90 4.8 11.3 0.00 0.13 0.00 90 1007.3
20260509080017 3 67 3.2 9.7 0.00 0.13 0.00 92 1007.5
20260509073017 3 67 3.2 6.4 0.00 0.13 0.00 90 1007.8
20260509070017 3 67 3.2 8.0 0.00 0.13 0.00 90 1008.0
20260509063018 4 67 3.2 6.4 0.00 0.13 0.00 89 1008.3
20260509060016 5 67 3.2 6.4 0.00 0.13 0.00 90 1008.6
20260509053016 5 67 3.2 6.4 0.00 0.13 0.00 90 1008.9
20260509050016 5 67 4.8 6.4 0.00 0.13 0.00 92 1009.0
20260509043016 5 45 1.6 4.8 0.00 0.13 0.00 90 1009.3
20260509040036 5 45 3.2 4.8 0.00 0.13 0.00 89 1009.4
20260509033016 5 45 1.6 4.8 0.00 0.13 0.13 88 1009.4
20260509030017 6 0.0 4.8 0.00 0.13 0.13 85 1009.6
20260509023016 6 0.0 0.0 0.00 0.13 0.13 84 1009.6
20260509020016 7 0.0 0.0 0.00 0.13 0.13 81 1009.6
20260509013015 8 0.0 0.0 0.00 0.13 0.13 78 1009.5
20260509010016 9 0.0 3.2 0.00 0.13 0.13 75 1009.1
20260509003035 10 22 1.6 4.8 0.00 0.13 0.13 75 1008.8
20260509000055 11 22 3.2 6.4 0.00 0.13 0.13 66 1008.8
20260508233017 11 22 4.8 9.7 0.00 0.13 0.13 62 1008.5
20260508230015 12 22 3.2 11.3 0.00 0.13 0.13 56 1008.5
20260508223015 12 45 3.2 11.3 0.00 0.13 0.13 53 1008.5
20260508220016 13 22 3.2 12.9 0.00 0.13 0.13 48 1008.6
20260508213015 13 22 4.8 14.5 0.00 0.13 0.13 52 1008.7
20260508210015 13 22 3.2 14.5 0.00 0.13 0.13 49 1008.9
20260508203037 13 337 3.2 11.3 0.00 0.13 0.13 55 1009.2
20260508200038 14 0 3.2 17.7 0.00 0.13 0.13 50 1009.3
20260508193016 14 225 6.4 17.7 0.00 0.13 0.13 47 1009.7
20260508190017 14 247 4.8 14.5 0.00 0.13 0.13 51 1009.9
20260508183017 13 247 4.8 16.1 0.00 0.13 0.13 58 1009.9
20260508180017 12 225 6.4 25.7 0.00 0.13 0.13 60 1010.2
20260508173036 12 247 4.8 16.1 0.00 0.13 0.13 56 1010.4
20260508170016 11 247 6.4 20.9 0.00 0.13 0.13 62 1010.7
20260508163058 11 225 6.4 16.1 0.00 0.13 0.13 70 1011.1
20260508160016 10 270 4.8 12.9 0.00 0.13 0.13 74 1011.2
20260508153016 9 225 4.8 19.3 0.00 0.13 0.13 81 1011.1
20260508150036 8 202 8.0 17.7 0.00 0.13 0.13 86 1011.0
20260508143016 6 225 6.4 14.5 0.03 0.13 0.13 93 1010.9
20260508140016 5 315 3.2 14.5 0.03 0.13 0.13 94 1011.3
20260508133016 5 270 3.2 12.9 0.08 0.10 0.10 95 1011.3
20260508130018 5 315 3.2 17.7 0.08 0.10 0.10 95 1011.2
20260508123016 5 0.0 0.0 0.00 0.03 0.03 96 1011.0
20260508120036 5 292 1.6 4.8 0.00 0.03 0.03 96 1010.4
20260508113016 5 0.0 3.2 0.03 0.03 0.03 96 1010.0
20260508110015 4 0.0 0.0 0.03 0.03 0.03 96 1009.7
20260508103015 3 0.0 0.0 0.00 0.00 0.00 95 1009.8
20260508100015 3 0.0 0.0 0.00 0.00 0.00 95 1009.9
20260508093057 3 0.0 3.2 0.00 0.00 0.00 94 1010.1